Terminal Aerodrome Forecast
Issued by NWS Twin Cities, MN

Home | Current Version | Previous Version | Graphics & Text | Print | Product List | Glossary On
Versions: 1 2 3 4 5 6 7 8 9 10 11 12 13 14 15 16 17 18 19 20 21 22 23 24 25 26 27
000
FTUS43 KMPX 242300
TAFMSP
TAF
KMSP 242339Z 2500/2606 24005KT P6SM OVC250
     FM250300 27006KT P6SM BKN250
     FM251000 30007KT P6SM SCT250
     FM251700 30014G22KT P6SM FEW250=

USA.gov is the U.S. government's official web portal to all federal, state and local government web resources and services.